BLY4147 EGSS-EGPH

Flight info

Callsign BLY4147
Flight time 0h 56m
Altitude 32000
Route UTAVA Q75 BUZAD T420 TNT UN57 POL UN601 RIBEL DCT INPIP
Aircraft A319/M-SDE3FGHIRWY/LB1

Departure

Time 2026-04-21 20:53
Airport London Stansted Airport (EGSS)

Arrival

Time 2026-04-21 21:49
Airport Edinburgh Airport (EGPH)
Time Latitude Longitude Altitude Speed Heading
2026-04-21 20:21 51.89657 0.26164 345 ft 0 kts 223°
2026-04-21 20:38 51.89666 0.26177 353 ft 3 kts 217°
2026-04-21 20:38 51.89682 0.26197 350 ft 3 kts 222°
2026-04-21 20:38 51.89694 0.26216 349 ft 3 kts 250°
2026-04-21 20:39 51.89694 0.26237 351 ft 3 kts 310°
2026-04-21 20:39 51.89684 0.26256 347 ft 1 kts 313°
2026-04-21 20:39 51.89674 0.26273 356 ft 2 kts 313°
2026-04-21 20:39 51.89671 0.26279 356 ft 0 kts 313°
2026-04-21 20:41 51.89675 0.26272 356 ft 4 kts 313°
2026-04-21 20:41 51.89719 0.26193 348 ft 11 kts 313°
2026-04-21 20:41 51.89710 0.26077 342 ft 13 kts 225°
2026-04-21 20:42 51.89643 0.25974 346 ft 14 kts 223°
2026-04-21 20:42 51.89572 0.25869 347 ft 14 kts 223°
2026-04-21 20:42 51.89499 0.25759 344 ft 15 kts 223°
2026-04-21 20:42 51.89423 0.25645 344 ft 15 kts 224°
2026-04-21 20:43 51.89344 0.25526 344 ft 16 kts 222°
2026-04-21 20:43 51.89261 0.25401 349 ft 17 kts 223°
2026-04-21 20:43 51.89172 0.25270 344 ft 18 kts 222°
2026-04-21 20:43 51.89079 0.25128 343 ft 19 kts 223°
2026-04-21 20:44 51.88979 0.24979 346 ft 20 kts 223°
2026-04-21 20:44 51.88877 0.24825 343 ft 20 kts 223°
2026-04-21 20:44 51.88772 0.24667 344 ft 21 kts 222°
2026-04-21 20:44 51.88670 0.24514 349 ft 20 kts 223°
2026-04-21 20:45 51.88567 0.24360 343 ft 21 kts 223°
2026-04-21 20:45 51.88458 0.24196 344 ft 22 kts 223°
2026-04-21 20:45 51.88367 0.24059 341 ft 10 kts 223°
2026-04-21 20:45 51.88313 0.23978 340 ft 11 kts 223°
2026-04-21 20:46 51.88251 0.23884 337 ft 13 kts 223°
2026-04-21 20:46 51.88182 0.23780 339 ft 14 kts 229°
2026-04-21 20:46 51.88115 0.23676 338 ft 13 kts 231°
2026-04-21 20:46 51.88043 0.23572 335 ft 14 kts 222°
2026-04-21 20:47 51.87967 0.23459 337 ft 15 kts 223°
2026-04-21 20:47 51.87885 0.23336 336 ft 17 kts 223°
2026-04-21 20:47 51.87798 0.23207 336 ft 17 kts 222°
2026-04-21 20:47 51.87728 0.23062 336 ft 16 kts 273°
2026-04-21 20:48 51.87793 0.22927 336 ft 15 kts 314°
2026-04-21 20:48 51.87857 0.22816 337 ft 8 kts 314°
2026-04-21 20:48 51.87871 0.22793 337 ft 0 kts 313°
2026-04-21 20:51 51.87884 0.22770 336 ft 11 kts 313°
2026-04-21 20:51 51.87938 0.22678 334 ft 9 kts 321°
2026-04-21 20:52 51.87986 0.22707 332 ft 0 kts 44°
2026-04-21 20:52 51.87994 0.22720 332 ft 8 kts 44°
2026-04-21 20:53 51.88278 0.23146 335 ft 103 kts 43°
2026-04-21 20:53 51.88979 0.24203 535 ft 156 kts 43°
2026-04-21 20:53 51.89767 0.25388 1522 ft 152 kts 46°
2026-04-21 20:53 51.90540 0.26555 2459 ft 154 kts 49°
2026-04-21 20:54 51.91367 0.27816 2940 ft 174 kts 49°
2026-04-21 20:54 51.92341 0.29201 3331 ft 200 kts 38°
2026-04-21 20:54 51.93779 0.29948 3734 ft 240 kts
2026-04-21 20:54 51.95479 0.29191 4374 ft 272 kts 330°
2026-04-21 20:55 51.96780 0.26812 4873 ft 287 kts 298°
2026-04-21 20:55 51.97431 0.23793 4989 ft 288 kts 284°
2026-04-21 20:55 51.97797 0.20554 5008 ft 289 kts 278°
2026-04-21 20:55 51.98047 0.17320 5021 ft 289 kts 277°
2026-04-21 20:56 51.98283 0.14085 5007 ft 288 kts 277°
2026-04-21 20:56 51.98547 0.10861 5015 ft 288 kts 279°
2026-04-21 20:56 51.98842 0.07652 5006 ft 288 kts 278°
2026-04-21 20:56 51.98855 0.04406 5008 ft 288 kts 262°
2026-04-21 20:57 51.98599 0.01177 5007 ft 288 kts 262°
2026-04-21 20:57 51.98353 -0.02045 5006 ft 288 kts 262°
2026-04-21 20:57 51.98110 -0.05290 5007 ft 290 kts 262°
2026-04-21 20:57 51.97869 -0.08538 5040 ft 293 kts 262°
2026-04-21 20:58 51.97616 -0.11884 5897 ft 298 kts 262°
2026-04-21 20:58 51.97363 -0.15206 7066 ft 297 kts 262°
2026-04-21 20:58 51.97106 -0.18545 8067 ft 300 kts 262°
2026-04-21 20:58 51.96846 -0.21915 9059 ft 303 kts 262°
2026-04-21 20:59 51.96582 -0.25319 10040 ft 306 kts 262°
2026-04-21 20:59 51.96309 -0.28782 10758 ft 318 kts 262°
2026-04-21 20:59 51.96017 -0.32477 11089 ft 342 kts 262°
2026-04-21 20:59 51.95706 -0.36383 11679 ft 354 kts 262°
2026-04-21 21:00 51.95391 -0.40368 12490 ft 359 kts 262°
2026-04-21 21:00 51.95079 -0.44401 13344 ft 362 kts 264°
2026-04-21 21:00 51.95103 -0.48558 14150 ft 366 kts 279°
2026-04-21 21:00 51.95745 -0.52538 14882 ft 367 kts 293°
2026-04-21 21:01 51.96939 -0.56139 15602 ft 368 kts 307°
2026-04-21 21:01 51.98664 -0.59249 16340 ft 368 kts 321°
2026-04-21 21:01 52.00737 -0.61587 17069 ft 369 kts 331°
2026-04-21 21:01 52.02973 -0.63767 17819 ft 371 kts 331°
2026-04-21 21:02 52.05196 -0.65938 18529 ft 375 kts 331°
2026-04-21 21:02 52.07443 -0.68143 19164 ft 378 kts 330°
2026-04-21 21:02 52.09686 -0.70356 19931 ft 376 kts 330°
2026-04-21 21:02 52.11919 -0.72565 20689 ft 376 kts 329°
2026-04-21 21:03 52.14156 -0.74781 21432 ft 375 kts 329°
2026-04-21 21:03 52.16383 -0.76986 22188 ft 375 kts 328°
2026-04-21 21:03 52.18611 -0.79186 22905 ft 374 kts 328°
2026-04-21 21:03 52.20828 -0.81376 23616 ft 373 kts 328°
2026-04-21 21:04 52.23049 -0.83573 24233 ft 373 kts 328°
2026-04-21 21:04 52.24518 -0.85027 24592 ft 373 kts 328°
2026-04-21 21:04 52.26742 -0.87231 25104 ft 374 kts 328°
2026-04-21 21:04 52.28968 -0.89441 25590 ft 377 kts 328°
2026-04-21 21:05 52.31227 -0.91690 25923 ft 382 kts 328°
2026-04-21 21:05 52.33506 -0.93962 26372 ft 385 kts 328°
2026-04-21 21:05 52.35793 -0.96242 26875 ft 386 kts 327°
2026-04-21 21:05 52.38118 -0.98559 27401 ft 386 kts 327°
2026-04-21 21:06 52.40410 -1.00846 27913 ft 386 kts 327°
2026-04-21 21:06 52.42699 -1.03135 28389 ft 386 kts 327°
2026-04-21 21:06 52.44996 -1.05435 28838 ft 387 kts 327°
2026-04-21 21:06 52.47298 -1.07743 29281 ft 389 kts 327°
2026-04-21 21:07 52.49609 -1.10067 29698 ft 390 kts 327°
2026-04-21 21:07 52.51926 -1.12401 30122 ft 392 kts 327°
2026-04-21 21:07 52.54256 -1.14753 30521 ft 393 kts 327°
2026-04-21 21:07 52.56587 -1.17107 30832 ft 395 kts 327°
2026-04-21 21:08 52.58950 -1.19492 30964 ft 401 kts 327°
2026-04-21 21:08 52.61346 -1.21909 31077 ft 407 kts 327°
2026-04-21 21:08 52.63777 -1.24363 31201 ft 413 kts 327°
2026-04-21 21:08 52.66242 -1.26855 31391 ft 416 kts 327°
2026-04-21 21:09 52.68711 -1.29360 31684 ft 417 kts 326°
2026-04-21 21:09 52.71186 -1.31873 32023 ft 418 kts 326°
2026-04-21 21:09 52.73662 -1.34387 32378 ft 419 kts 326°
2026-04-21 21:09 52.76140 -1.36908 32433 ft 419 kts 327°
2026-04-21 21:10 52.81106 -1.41977 32409 ft 420 kts 326°
2026-04-21 21:10 52.86073 -1.47068 32409 ft 420 kts 326°
2026-04-21 21:11 52.91032 -1.52166 32383 ft 420 kts 326°
2026-04-21 21:11 52.96002 -1.57284 32406 ft 420 kts 326°
2026-04-21 21:12 53.00971 -1.62419 32421 ft 421 kts 326°
2026-04-21 21:12 53.06026 -1.67342 32410 ft 423 kts 334°
2026-04-21 21:13 53.11559 -1.70806 32401 ft 425 kts 336°
2026-04-21 21:13 53.17135 -1.74264 32406 ft 425 kts 336°
2026-04-21 21:14 53.22675 -1.77708 32404 ft 425 kts 336°
2026-04-21 21:14 53.28216 -1.81158 32420 ft 425 kts 336°
2026-04-21 21:15 53.33763 -1.84636 32414 ft 426 kts 336°
2026-04-21 21:15 53.39316 -1.88111 32407 ft 426 kts 336°
2026-04-21 21:16 53.44869 -1.91594 32414 ft 426 kts 336°
2026-04-21 21:16 53.50423 -1.95096 32415 ft 426 kts 336°
2026-04-21 21:17 53.55979 -1.98625 32421 ft 427 kts 336°
2026-04-21 21:17 53.61536 -2.02149 32422 ft 427 kts 336°
2026-04-21 21:18 53.67097 -2.05680 32427 ft 427 kts 336°
2026-04-21 21:18 53.72653 -2.09219 32422 ft 427 kts 336°
2026-04-21 21:19 53.78203 -2.12835 32420 ft 427 kts 335°
2026-04-21 21:19 53.83743 -2.16652 32428 ft 427 kts 335°
2026-04-21 21:20 53.89246 -2.20486 32429 ft 428 kts 335°
2026-04-21 21:20 53.94731 -2.24259 32433 ft 428 kts 335°
2026-04-21 21:21 54.00291 -2.28076 32447 ft 429 kts 335°
2026-04-21 21:21 54.05826 -2.31872 32434 ft 429 kts 335°
2026-04-21 21:22 54.11373 -2.35690 32427 ft 430 kts 335°
2026-04-21 21:22 54.16913 -2.39536 32435 ft 430 kts 335°
2026-04-21 21:23 54.22456 -2.43403 32461 ft 430 kts 335°
2026-04-21 21:23 54.28019 -2.47282 32427 ft 433 kts 335°
2026-04-21 21:24 54.33616 -2.51203 32431 ft 435 kts 335°
2026-04-21 21:24 54.39232 -2.55137 32433 ft 437 kts 335°
2026-04-21 21:25 54.44861 -2.59093 32439 ft 438 kts 335°
2026-04-21 21:25 54.50508 -2.63080 32430 ft 440 kts 336°
2026-04-21 21:26 54.56181 -2.67099 32436 ft 443 kts 336°
2026-04-21 21:26 54.61887 -2.71156 32463 ft 442 kts 335°
2026-04-21 21:27 54.64682 -2.73144 32219 ft 430 kts 335°
2026-04-21 21:27 54.67424 -2.75098 31413 ft 424 kts 335°
2026-04-21 21:27 54.70136 -2.77037 30412 ft 421 kts 334°
2026-04-21 21:27 54.72822 -2.78958 29650 ft 412 kts 335°
2026-04-21 21:28 54.75439 -2.80829 29075 ft 401 kts 336°
2026-04-21 21:28 54.78015 -2.82678 28520 ft 391 kts 336°
2026-04-21 21:28 54.82957 -2.86228 27471 ft 380 kts 336°
2026-04-21 21:29 54.85387 -2.87980 26951 ft 378 kts 336°
2026-04-21 21:29 54.87819 -2.89739 26434 ft 377 kts 336°
2026-04-21 21:29 54.90259 -2.91505 25906 ft 387 kts 336°
2026-04-21 21:29 54.92769 -2.93322 25360 ft 393 kts 337°
2026-04-21 21:30 54.95302 -2.95150 24810 ft 395 kts 338°
2026-04-21 21:30 54.97847 -2.96987 24251 ft 396 kts 338°
2026-04-21 21:30 55.00403 -2.98835 23643 ft 399 kts 338°
2026-04-21 21:30 55.02949 -3.00680 23097 ft 398 kts 338°
2026-04-21 21:31 55.05482 -3.02520 22542 ft 397 kts 338°
2026-04-21 21:31 55.08060 -3.04403 21983 ft 396 kts 338°
2026-04-21 21:31 55.10598 -3.06261 21428 ft 394 kts 338°
2026-04-21 21:31 55.13121 -3.08114 20879 ft 393 kts 338°
2026-04-21 21:32 55.15640 -3.09960 20307 ft 392 kts 338°
2026-04-21 21:32 55.18194 -3.11828 19277 ft 404 kts 338°
2026-04-21 21:32 55.20806 -3.13738 18660 ft 405 kts 338°
2026-04-21 21:32 55.23381 -3.15628 18292 ft 393 kts 339°
2026-04-21 21:33 55.25817 -3.17423 18149 ft 368 kts 339°
2026-04-21 21:33 55.28116 -3.19079 17941 ft 348 kts 342°
2026-04-21 21:33 55.30423 -3.20011 17445 ft 336 kts 356°
2026-04-21 21:33 55.32725 -3.20015 16841 ft 328 kts
2026-04-21 21:34 55.34985 -3.19640 16223 ft 324 kts
2026-04-21 21:34 55.37215 -3.19283 15661 ft 320 kts
2026-04-21 21:34 55.39423 -3.18938 15099 ft 317 kts
2026-04-21 21:34 55.41602 -3.18598 14557 ft 313 kts
2026-04-21 21:35 55.43759 -3.18261 13990 ft 309 kts
2026-04-21 21:35 55.45893 -3.17932 13360 ft 306 kts
2026-04-21 21:35 55.48003 -3.17609 12736 ft 303 kts
2026-04-21 21:35 55.50100 -3.17282 12103 ft 300 kts
2026-04-21 21:36 55.52169 -3.16956 11526 ft 297 kts
2026-04-21 21:36 55.54221 -3.16632 10944 ft 295 kts
2026-04-21 21:36 55.56251 -3.16313 10355 ft 292 kts
2026-04-21 21:36 55.58264 -3.15998 9718 ft 289 kts
2026-04-21 21:37 55.59609 -3.15788 9276 ft 286 kts
2026-04-21 21:37 55.61578 -3.15483 8678 ft 280 kts
2026-04-21 21:37 55.63449 -3.15200 8523 ft 259 kts
2026-04-21 21:37 55.65189 -3.15005 8530 ft 249 kts
2026-04-21 21:38 55.66861 -3.15845 8537 ft 258 kts 332°
2026-04-21 21:38 55.68127 -3.18112 8536 ft 264 kts 300°
2026-04-21 21:38 55.68713 -3.21205 8538 ft 267 kts 282°
2026-04-21 21:38 55.69053 -3.24427 8318 ft 265 kts 280°
2026-04-21 21:39 55.69366 -3.27684 7960 ft 264 kts 279°
2026-04-21 21:39 55.69664 -3.30890 7613 ft 263 kts 279°
2026-04-21 21:39 55.69955 -3.34091 7255 ft 262 kts 279°
2026-04-21 21:39 55.70241 -3.37276 6926 ft 261 kts 279°
2026-04-21 21:40 55.70525 -3.40439 6579 ft 259 kts 279°
2026-04-21 21:40 55.70804 -3.43585 6230 ft 258 kts 279°
2026-04-21 21:40 55.71340 -3.46576 5872 ft 254 kts 302°
2026-04-21 21:40 55.72315 -3.49171 5510 ft 252 kts 309°
2026-04-21 21:41 55.73344 -3.51685 5142 ft 251 kts 309°
2026-04-21 21:41 55.74370 -3.54183 4787 ft 249 kts 309°
2026-04-21 21:41 55.75382 -3.56662 4457 ft 246 kts 309°
2026-04-21 21:41 55.76359 -3.59087 4326 ft 236 kts 309°
2026-04-21 21:42 55.77287 -3.61422 4187 ft 226 kts 309°
2026-04-21 21:42 55.78174 -3.63680 4068 ft 220 kts 309°
2026-04-21 21:42 55.79031 -3.65871 3973 ft 210 kts 309°
2026-04-21 21:42 55.79849 -3.67962 3775 ft 203 kts 312°
2026-04-21 21:43 55.80933 -3.69349 3482 ft 186 kts 351°
2026-04-21 21:43 55.82175 -3.69576 3210 ft 176 kts 11°
2026-04-21 21:43 55.83330 -3.69076 3033 ft 168 kts 30°
2026-04-21 21:43 55.84303 -3.67983 3007 ft 164 kts 46°
2026-04-21 21:44 55.85035 -3.66435 3012 ft 161 kts 61°
2026-04-21 21:44 55.85611 -3.64756 3010 ft 161 kts 61°
2026-04-21 21:44 55.86202 -3.63037 3006 ft 159 kts 61°
2026-04-21 21:44 55.86750 -3.61439 3003 ft 147 kts 61°
2026-04-21 21:45 55.87278 -3.59900 2909 ft 144 kts 62°
2026-04-21 21:45 55.87793 -3.58393 2753 ft 141 kts 62°
2026-04-21 21:45 55.88303 -3.56905 2575 ft 140 kts 62°
2026-04-21 21:45 55.88806 -3.55432 2383 ft 138 kts 61°
2026-04-21 21:46 55.89305 -3.53973 2189 ft 138 kts 61°
2026-04-21 21:46 55.89807 -3.52502 1994 ft 138 kts 60°
2026-04-21 21:46 55.90307 -3.51038 1800 ft 138 kts 60°
2026-04-21 21:46 55.90806 -3.49575 1602 ft 138 kts 60°
2026-04-21 21:47 55.91307 -3.48107 1413 ft 138 kts 60°
2026-04-21 21:47 55.91786 -3.46702 1219 ft 129 kts 60°
2026-04-21 21:47 55.92243 -3.45359 1030 ft 124 kts 59°
2026-04-21 21:47 55.92686 -3.44057 857 ft 123 kts 59°
2026-04-21 21:48 55.93129 -3.42754 691 ft 122 kts 60°
2026-04-21 21:48 55.93565 -3.41474 523 ft 122 kts 60°
2026-04-21 21:48 55.94005 -3.40176 366 ft 121 kts 60°
2026-04-21 21:48 55.94445 -3.38878 173 ft 121 kts 59°
2026-04-21 21:49 55.94856 -3.37659 113 ft 103 kts 58°
2026-04-21 21:49 55.95162 -3.36766 107 ft 50 kts 59°
2026-04-21 21:49 55.95258 -3.36477 103 ft 13 kts 70°
2026-04-21 21:49 55.95199 -3.36357 102 ft 13 kts 150°
2026-04-21 21:50 55.95142 -3.36257 104 ft 12 kts 110°
2026-04-21 21:50 55.95114 -3.36108 104 ft 13 kts 108°
2026-04-21 21:50 55.95083 -3.35955 105 ft 13 kts 116°
2026-04-21 21:50 55.95034 -3.35830 106 ft 11 kts 152°
2026-04-21 21:51 55.94975 -3.35860 107 ft 7 kts 200°
2026-04-21 21:51 55.94949 -3.35857 107 ft 2 kts 164°
2026-04-21 21:51 55.94931 -3.35846 106 ft 3 kts 172°
2026-04-21 21:51 55.94914 -3.35879 106 ft 5 kts 245°
2026-04-21 21:52 55.94905 -3.35939 107 ft 1 kts 253°